Lid_Strength_Index
3 3 3 3 3 3 3 3 3 3 3 3 3 3 3 3 3 5 6 3 2 -0 2 4 3 5 5 6 5 5 10 12 10 9 9 6 7 5 5 6 6 6 6 4 2
3 3 3 3 3 3 3 3 3 3 3 3 2 3 3 3 5 6 2 -1 -1 -0 5 6 6 6 7 6 6 7 9 10 8 7 7 6 6 5 6 8 8 6 5 3 2
3 3 3 3 3 3 3 3 3 3 3 3 3 3 3 3 6 4 -2 -2 -1 1 5 6 6 7 8 6 7 7 9 7 6 6 6 7 7 6 8 9 7 7 5 4 3
3 3 3 3 3 3 3 3 3 4 4 3 4 4 3 5 10 3 -2 -2 -1 2 4 6 7 8 9 9 7 9 7 6 6 6 6 7 6 7 7 7 5 5 5 4 4
3 3 3 3 3 3 3 3 3 3 3 4 4 4 5 7 6 3 -1 -1 1 3 6 7 7 8 10 9 8 9 8 6 6 6 6 6 7 7 7 6 5 5 5 4 4
3 3 4 3 3 3 4 4 4 4 4 4 4 3 6 10 3 3 2 1 2 4 5 6 7 7 9 9 9 8 8 7 6 6 6 7 7 7 7 5 6 5 5 5 4
4 4 4 4 4 4 4 4 4 4 4 4 3 4 7 7 3 2 2 1 2 4 6 5 6 7 7 9 8 8 9 8 8 7 8 7 9 9 6 5 6 6 5 5 4
4 4 5 5 4 4 4 4 4 3 3 3 3 4 8 2 1 2 1 2 1 3 4 5 5 7 7 7 8 10 9 12 9 8 8 8 11 8 6 6 6 6 5 5 5
4 4 4 4 4 4 4 4 4 3 3 3 4 6 8 1 3 2 2 3 2 2 3 3 5 7 7 10 11 10 13 12 11 8 8 8 10 8 6 5 6 6 6 5 5
4 4 5 5 5 4 5 4 4 3 3 3 4 8 6 5 2 1 1 2 3 3 4 6 7 9 9 11 14 13 12 11 11 8 8 9 10 8 6 6 6 5 5 5 5
4 5 5 5 5 5 5 5 5 7 5 6 6 6 4 2 1 2 1 2 3 4 8 6 10 12 10 10 10 10 10 10 8 6 8 9 8 8 6 6 6 5 5 5 4
4 5 4 4 4 5 5 6 5 4 8 4 4 4 2 2 5 3 1 5 6 8 6 8 11 9 9 9 10 10 10 9 7 6 7 8 9 7 6 5 5 4 4 4 4
4 5 4 4 5 5 4 3 2 3 8 6 3 4 4 3 5 5 3 4 6 8 8 9 9 8 9 10 11 11 11 10 9 7 7 8 10 8 6 5 4 4 4 3 3
5 5 5 4 6 4 6 3 2 1 10 8 6 4 3 3 6 3 2 4 6 9 7 8 7 8 10 10 10 12 10 9 8 9 12 8 13 9 7 6 5 4 4 4 3
5 5 5 5 6 7 5 2 1 2 18 7 6 2 3 6 5 5 2 4 8 8 7 9 9 9 10 10 9 11 8 9 8 9 9 10 11 9 7 8 6 5 4 4 3
5 5 4 5 5 4 2 2 2 12 17 8 7 8 7 6 6 5 5 3 4 7 7 8 6 7 8 7 8 7 8 8 8 9 13 11 10 10 9 8 6 5 4 4 3
5 5 5 4 6 3 2 3 11 15 7 9 11 8 10 9 8 8 8 8 10 13 12 9 9 7 7 8 7 7 9 13 14 14 14 9 11 10 7 6 6 5 5 4 3
5 5 4 2 1 1 2 7 15 9 9 8 9 9 11 10 10 9 9 11 7 8 10 13 13 8 6 8 9 9 9 12 17 15 13 9 12 10 6 5 5 4 4 4 3
6 3 3 1 0 1 5 12 12 9 7 9 9 12 11 10 10 11 11 10 9 8 11 12 13 7 6 6 7 9 10 8 11 11 14 11 9 7 6 6 5 5 4 5 4
5 3 2 -1 -1 2 8 11 8 6 6 7 13 10 13 12 12 12 12 9 9 8 7 10 14 8 7 6 6 7 7 11 11 16 18 13 11 12 8 7 6 5 5 5 4
4 5 1 -1 0 6 11 9 7 5 6 9 11 10 11 12 12 13 13 9 8 8 7 8 12 12 8 9 9 9 10 9 10 12 16 17 16 8 8 8 8 7 5 5 4
5 7 1 -0 8 7 10 7 6 7 6 8 8 8 11 11 12 13 13 11 7 8 9 8 12 16 12 7 7 8 9 9 14 15 12 15 17 8 8 7 7 8 7 4 4
7 5 1 1 10 9 7 8 7 9 9 9 10 8 8 11 13 11 11 8 7 8 9 8 13 17 15 12 9 11 8 9 10 12 15 17 16 8 8 7 6 7 7 5 4
6 8 6 5 5 7 9 9 9 6 8 8 9 8 9 11 9 11 11 9 7 8 8 8 11 13 18 15 12 13 11 9 11 15 15 14 14 11 10 9 8 6 5 4 4
5 7 5 8 7 7 6 7 9 10 7 8 10 8 9 12 10 11 9 8 8 7 7 9 14 13 12 11 11 11 12 11 13 12 16 13 12 11 10 9 8 5 5 5 4
6 7 5 6 6 7 7 8 9 8 9 10 11 9 9 11 11 13 9 9 9 8 8 9 13 10 14 12 11 12 10 11 11 11 10 10 11 8 7 6 6 5 5 5 4
3 2 5 7 7 8 8 8 8 7 7 8 9 10 10 9 7 6 6 6 7 8 9 9 9 11 13 10 11 13 12 10 11 10 9 12 9 7 7 6 6 5 5 5 4